星链-30084 (STARLINK-30084 )

导读 | 豆包AI

STARLINK-30084是美国SpaceX星链星座中的低轨通信卫星,于2023年6月4日发射升空,属于星链二代组网部署的组成部分。该卫星运行在近地轨道,采用Starlink v2.0 mini平台设计,具备自动规避空间碎片能力,旨在为全球提供高速低延迟宽带互联网服务,助力偏远地区网络覆盖,是星链大规模低轨星座构建中的一环,目前保持在轨运行状态。

基本信息
目录编号:
56825
目录名称:
STARLINK-30084
国际标识:
2023-079C
轨道中心:
EARTH
卫星名称:
星链-30084
卫星全名:
星链-30084 (STARLINK-30084 )
卫星状态:
在轨 (已飞行1015 天)
发射日期:
2023-06-04 UTC
国别 :
美国 (US)
星等 :
--
轨道信息
数据来源 国际轨道数据
星历时间: 2026-03-15T18:12:01+0800
11小时前
查看轨道信息
半长轴: 6863.624km
偏心率: 0.0001523
轨道倾角: 43.002°
近地点辐角 279.711°
升交点赤经 73.961°
平近点角 80.357°
近地点: 484.441km
远地点: 486.533km
周期: 94.317分钟
每日圈数: 15.267665
详细信息
固有亮度:
5
最大亮度:
0.5
卫星平台:
Starlink v2.0 mini
覆盖范围:
全球
运营商:
太空探索技术公司
运营商所在国:
美国
制造商(研发单位):
太空探索技术公司
制造商所在国:
美国
使用方式:
暂无
卫星简介
星链(Starlink)计划是由太空探索技术公司(SpaceX)提出的一个巨型低轨卫星互联网星座项目,计划在2019年至2024年间在太空搭建由约1.2万颗卫星组成的“星链”网络,其中1584颗将部署在地球上空550千米处的近地轨道,并从2020年开始工作。该卫星仍在工作。
2D轨道图
3D轨道图
轨道高度分析图
轨道倾角分析图
轨道综合分析图
查看轨道综合分析图